Location: Brienzwiler
(46.7508°N, 8.1014°E)
Time: 01:34:14
(UTC+00:00)

Cosmos 1602 Rocket - Pass Details

Date: 05 July 2020
Orbit: 603 x 633 km, 82.5° (Epoch: 11 August)

Event Time Altitude Azimuth Distance (km) Brightness Sun altitude
Rises 20:22:47 0° 200° (SSW) 2,882 6.7 -8.5°
Reaches altitude 10° 20:25:02 10° 205° (SSW) 1,986 5.9 -8.7°
Maximum altitude 20:29:20 53° 283° (WNW) 775 4.4 -9.2°
Drops below altitude 10° 20:33:43 10° 0° (N) 2,019 7.0 -9.7°
Sets 20:36:02 0° 6° (N) 2,935 7.7 -10.0°
